[ ตารางข้อมูล ] [ Min-Max ] [ วันนี้4 ] [ วันนี้2 ] [ เทียบ3วัน A ] [ เทียบ4วัน B ]   

วันนี้2   [ ◀ ช่วงเก่ากว่า ] [ ช่วงที่ 193 ] [ ช่วงใหม่กว่า ▶ ] [ ล่าสุด ]    [ 3 ชั่วโมง ] [ 6 ชั่วโมง ] [ 12 ชั่วโมง ] [ 24 ชั่วโมง ]   วันนี้2

อุณภูมิตู้ Knockdown4529  ราย 3 ชั่วโมง  ที่วัดได้ ในช่วงวันเวลา 10/04/2026 (05:33) ถึง 10/04/2026 (08:33) 
ความชื้นในตู้ Knockdown4529  ราย 3 ชั่วโมง  ที่วัดได้ ในช่วงวันเวลา 10/04/2026 (05:33) ถึง 10/04/2026 (08:33) 

 
DS18B20SHTC3 
IDDate d/m/Y & Timedata1
สูง
data2
ต่ำ
data3
นอก
temp
pcb
hum
pcb
Time
 10495  10/04/2026 08:33:23  27.3  27.1  29.0  27.1  69.2  08:33 
 10494  10/04/2026 08:28:41  27.2  27.0  28.9  27.1  69.5  08:28 
 10493  10/04/2026 08:24:00  27.1  26.9  29.0  26.9  69.6  08:24 
 10492  10/04/2026 08:19:16  27.0  26.9  28.7  26.9  69.5  08:19 
 10491  10/04/2026 08:14:34  26.9  26.8  28.4  26.7  69.8  08:14 
 10490  10/04/2026 08:09:51  26.8  26.8  28.2  26.6  69.8  08:09 
 10489  10/04/2026 08:05:09  26.8  26.8  28.2  26.5  69.8  08:05 
 10488  10/04/2026 08:00:25  26.7  26.7  27.9  26.6  69.9  08:00 
 10487  10/04/2026 07:55:43  26.7  26.6  27.6  26.5  69.7  07:55 
 10486  10/04/2026 07:51:02  26.6  26.6  27.4  26.5  70.0  07:51 
 10485  10/04/2026 07:46:20  26.6  26.6  27.3  26.5  69.9  07:46 
 10484  10/04/2026 07:41:38  26.5  26.6  27.0  26.4  70.0  07:41 
 10483  10/04/2026 07:36:57  26.5  26.5  26.7  26.5  69.9  07:36 
 10482  10/04/2026 07:32:15  26.4  26.5  26.5  26.4  70.1  07:32 
 10481  10/04/2026 07:27:33  26.4  26.5  26.4  26.5  70.2  07:27 
 10480  10/04/2026 07:22:52  26.4  26.5  26.2  26.4  70.1  07:22 
 10479  10/04/2026 07:18:11  26.4  26.5  25.9  26.4  70.2  07:18 
 10478  10/04/2026 07:13:28  26.4  26.5  25.7  26.4  70.4  07:13 
 10477  10/04/2026 07:08:46  26.4  26.5  25.7  26.4  70.3  07:08 
 10476  10/04/2026 07:04:04  26.4  26.5  25.6  26.4  70.3  07:04 
 10475  10/04/2026 06:59:23  26.4  26.5  25.5  26.2  70.3  06:59 
 10474  10/04/2026 06:54:41  26.4  26.5  25.4  26.4  70.5  06:54 
 10473  10/04/2026 06:50:00  26.4  26.5  25.4  26.4  70.5  06:50 
 10472  10/04/2026 06:45:19  26.4  26.5  25.4  26.4  70.5  06:45 

Data every 5 minute.


ใช้เวลาประมวลผล 0.00206 วินาที